Time,TemperatureF,DewpointF,PressureIn,WindDirection,WindDirectionDegrees,WindSpeedMPH,WindSpeedGustMPH,Humidity,HourlyPrecipIn,Conditions,Clouds,dailyrainin,SoftwareType,DateUTC
2013-07-29 00:22:00,79.0,77.0,-100.00,SW,225,5.0,-999.0,94,0.00,,,-99.99,,2013-07-29 04:22:00,
2013-07-29 00:33:00,79.0,77.0,-100.00,SW,225,5.0,-999.0,94,0.00,,,-99.99,,2013-07-29 04:33:00,
2013-07-29 00:43:00,79.0,77.0,-100.00,SW,225,5.0,-999.0,94,0.00,,,-99.99,,2013-07-29 04:43:00,
2013-07-29 01:22:00,78.0,76.0,-100.00,SSW,210,5.0,-999.0,92,0.00,,,-99.99,,2013-07-29 05:22:00,
2013-07-29 01:32:00,78.0,76.0,-100.00,SSW,210,5.0,-999.0,92,0.00,,,-99.99,,2013-07-29 05:32:00,
2013-07-29 01:43:00,78.0,76.0,-100.00,SSW,210,5.0,-999.0,92,0.00,,,-99.99,,2013-07-29 05:43:00,
2013-07-29 02:22:00,79.0,77.0,-100.00,SW,235,5.0,-999.0,94,0.00,,,-99.99,,2013-07-29 06:22:00,
2013-07-29 02:32:00,79.0,77.0,-100.00,SW,235,5.0,-999.0,94,0.00,,,-99.99,,2013-07-29 06:32:00,
2013-07-29 02:43:00,79.0,77.0,-100.00,SW,235,5.0,-999.0,94,0.00,,,-99.99,,2013-07-29 06:43:00,
2013-07-29 03:23:00,78.0,77.0,-100.00,WSW,237,3.0,-999.0,96,0.00,,,-99.99,,2013-07-29 07:23:00,
2013-07-29 03:33:00,78.0,77.0,-100.00,WSW,237,3.0,-999.0,96,0.00,,,-99.99,,2013-07-29 07:33:00,
2013-07-29 03:43:00,78.0,77.0,-100.00,WSW,237,3.0,-999.0,96,0.00,,,-99.99,,2013-07-29 07:43:00,
2013-07-29 04:22:00,77.0,76.0,-100.00,WNW,287,2.0,-999.0,97,0.00,,,-99.99,,2013-07-29 08:22:00,
2013-07-29 04:33:00,77.0,76.0,-100.00,WNW,287,2.0,-999.0,97,0.00,,,-99.99,,2013-07-29 08:33:00,
2013-07-29 04:42:00,77.0,76.0,-100.00,WNW,287,2.0,-999.0,97,0.00,,,-99.99,,2013-07-29 08:42:00,
2013-07-29 05:22:00,77.0,76.0,-100.00,West,264,4.0,-999.0,98,0.00,,,-99.99,,2013-07-29 09:22:00,
2013-07-29 05:33:00,77.0,76.0,-100.00,West,264,4.0,-999.0,98,0.00,,,-99.99,,2013-07-29 09:33:00,
2013-07-29 05:43:00,77.0,76.0,-100.00,West,264,4.0,-999.0,98,0.00,,,-99.99,,2013-07-29 09:43:00,
2013-07-29 05:45:00,77.0,76.0,-100.00,West,279,5.0,-999.0,98,0.00,,,-99.99,,2013-07-29 09:45:00,
2013-07-29 06:25:00,77.0,76.0,-100.00,West,279,5.0,-999.0,98,0.00,,,-99.99,,2013-07-29 10:25:00,
2013-07-29 06:38:00,77.0,76.0,-100.00,West,279,5.0,-999.0,98,0.00,,,-99.99,,2013-07-29 10:38:00,
2013-07-29 06:45:00,77.0,76.0,-100.00,West,261,4.0,-999.0,98,0.00,,,-99.99,,2013-07-29 10:45:00,
2013-07-29 07:25:00,77.0,76.0,-100.00,West,261,4.0,-999.0,98,0.00,,,-99.99,,2013-07-29 11:25:00,
2013-07-29 07:38:00,77.0,76.0,-100.00,West,261,4.0,-999.0,98,0.00,,,-99.99,,2013-07-29 11:38:00,
2013-07-29 07:45:00,77.0,76.0,-100.00,West,263,5.0,-999.0,97,0.00,,,-99.99,,2013-07-29 11:45:00,
2013-07-29 08:28:00,77.0,76.0,-100.00,West,263,5.0,-999.0,97,0.00,,,-99.99,,2013-07-29 12:28:00,
2013-07-29 08:37:00,77.0,76.0,-100.00,West,263,5.0,-999.0,97,0.00,,,-99.99,,2013-07-29 12:37:00,
2013-07-29 08:45:00,80.0,76.0,-100.00,WSW,243,6.0,-999.0,88,0.00,,,-99.99,,2013-07-29 12:45:00,
2013-07-29 09:45:00,83.0,75.0,-100.00,West,264,5.0,-999.0,76,0.00,,,-99.99,,2013-07-29 13:45:00,
2013-07-29 10:29:00,83.0,75.0,-100.00,West,264,5.0,-999.0,76,0.00,,,-99.99,,2013-07-29 14:29:00,
2013-07-29 10:45:00,85.0,74.0,-100.00,WSW,250,6.0,-999.0,70,0.00,,,-99.99,,2013-07-29 14:45:00,
2013-07-29 11:38:00,85.0,74.0,-100.00,WSW,250,6.0,-999.0,70,0.00,,,-99.99,,2013-07-29 15:38:00,
2013-07-29 11:45:00,86.0,74.0,-100.00,SSW,213,6.0,-999.0,67,0.00,,,-99.99,,2013-07-29 15:45:00,
2013-07-29 12:45:00,84.0,78.0,-100.00,SSE,164,10.0,-999.0,80,0.00,,,-99.99,,2013-07-29 16:45:00,
2013-07-29 13:42:00,84.0,78.0,-100.00,SSE,164,10.0,-999.0,80,0.00,,,-99.99,,2013-07-29 17:42:00,
2013-07-29 13:45:00,84.0,73.0,-100.00,South,177,11.0,-999.0,69,0.00,,,-99.99,,2013-07-29 17:45:00,
2013-07-29 14:28:00,84.0,73.0,-100.00,South,177,11.0,-999.0,69,0.00,,,-99.99,,2013-07-29 18:28:00,
2013-07-29 14:45:00,84.0,78.0,-100.00,SSW,209,12.0,-999.0,80,0.00,,,-99.99,,2013-07-29 18:45:00,
2013-07-29 15:28:00,84.0,78.0,-100.00,SSW,209,12.0,-999.0,80,0.00,,,-99.99,,2013-07-29 19:28:00,
2013-07-29 15:39:00,84.0,78.0,-100.00,SSW,209,12.0,-999.0,80,0.00,,,-99.99,,2013-07-29 19:39:00,
2013-07-29 15:45:00,83.0,77.0,-100.00,South,189,15.0,-999.0,82,0.00,,,-99.99,,2013-07-29 19:45:00,
2013-07-29 16:45:00,80.0,78.0,-100.00,SW,233,11.0,-999.0,94,0.04,,,-99.99,,2013-07-29 20:45:00,
2013-07-29 17:25:00,80.0,78.0,-100.00,SW,233,11.0,-999.0,94,0.04,,,-99.99,,2013-07-29 21:25:00,
2013-07-29 17:36:00,80.0,78.0,-100.00,SW,233,11.0,-999.0,94,0.04,,,-99.99,,2013-07-29 21:36:00,
2013-07-29 17:45:00,73.0,72.0,-100.00,West,280,8.0,-999.0,96,0.43,,,-99.99,,2013-07-29 21:45:00,
2013-07-29 18:25:00,73.0,72.0,-100.00,West,280,8.0,-999.0,96,0.43,,,-99.99,,2013-07-29 22:25:00,
2013-07-29 18:38:00,73.0,72.0,-100.00,West,280,8.0,-999.0,96,0.43,,,-99.99,,2013-07-29 22:38:00,
2013-07-29 18:45:00,74.0,73.0,-100.00,East,92,2.0,-999.0,97,0.05,,,-99.99,,2013-07-29 22:45:00,
2013-07-29 19:35:00,74.0,73.0,-100.00,East,92,2.0,-999.0,97,0.05,,,-99.99,,2013-07-29 23:35:00,
2013-07-29 19:45:00,75.0,73.0,-100.00,North,7,1.0,-999.0,96,0.00,,,-99.99,,2013-07-29 23:45:00,
2013-07-29 20:35:00,75.0,73.0,-100.00,North,7,1.0,-999.0,96,0.00,,,-99.99,,2013-07-30 00:35:00,
2013-07-29 20:45:00,75.0,74.0,-100.00,WNW,285,3.0,-999.0,94,0.00,,,-99.99,,2013-07-30 00:45:00,
2013-07-29 21:45:00,75.0,74.0,-100.00,East,98,2.0,-999.0,97,0.01,,,-99.99,,2013-07-30 01:45:00,
2013-07-29 22:45:00,76.0,75.0,-100.00,SW,227,5.0,-999.0,97,0.00,,,-99.99,,2013-07-30 02:45:00,
2013-07-29 23:36:00,76.0,75.0,-100.00,SW,227,5.0,-999.0,97,0.00,,,-99.99,,2013-07-30 03:36:00,